Location: Boitzum
(52.1496°N, 9.6943°E)
Time: 23:31:52
(UTC+00:00)

Cosmos 1833 Rocket - Pass Details

Date: 13 January 2026
Orbit: 832 x 838 km, 71.0° (Epoch: 18 February)

Event Time Altitude Azimuth Distance (km) Brightness Sun altitude
Exits shadow 03:59:08 67° 77° (ENE) 910 2.9 -30.6°
Drops below altitude 10° 04:04:25 10° 139° (SE) 2,444 5.5 -29.8°
Sets 04:06:51 0° 142° (SE) 3,373 6.3 -29.4°
